Cotulla, TX

6:31 AM CST on February 21, 2017 (GMT -0600)
Cotulla-La Salle County

Weather History for KCOT - November, 2012

Change the Weather History Date:

Sunday, November 18, 2012

  Actual Average Record
Temperature  
Mean Temperature 62 °F -  
Max Temperature 73 °F 71 °F 88 °F (2013)
Min Temperature 51 °F 52 °F 37 °F (2014)
Degree Days  
Heating Degree Days 3    
Growing Degree Days 12 (Base 50)    
Moisture  
Dew Point 51 °F    
Average Humidity 64    
Maximum Humidity 89    
Minimum Humidity 46    
Precipitation  
Precipitation 0.00 in - - ()
Sea Level Pressure  
Sea Level Pressure 30.21 in    
Wind  
Wind Speed 5 mph (SE)    
Max Wind Speed 13 mph    
Max Gust Speed 18 mph    
Visibility 10 miles    
Events      
Averages and records for this station are not official NWS values.
T = Trace of Precipitation, MM = Missing Value Source: NWS Daily Summary

Daily Weather History Graph

Daily Weather History Graph

Search for Another Location

Airport or City:

Trip Planner

Search our weather history database for the weather conditions in past years. The results will help you decide how hot, cold, wet, or windy it might be!

Date:

Astronomy

Nov. 18, 2012 Rise Set
Actual Time 7:02 AM CST 5:42 PM CST
Civil Twilight 6:36 AM CST 6:07 PM CST
Nautical Twilight 6:08 AM CST 6:35 PM CST
Astronomical Twilight 5:40 AM CST 7:03 PM CST
Moon 11:35 AM CST (11/18) 10:56 PM CST (11/18)
Length of Visible Light 11h 30m
Length of Day
10h 40m
Waxing Crescent, 30% of the Moon is Illuminated
Nov 18
Waxing Crescent
Nov 20
First Quarter
Nov 28
Full
Dec 6
Last Quarter
Dec 13
New

Hourly Weather History & Observations

Time (CST) Temp. Dew Point Humidity Pressure Visibility Wind Dir Wind Speed Gust Speed Precip Events Conditions
12:53 AM 53.6 °F 46.4 °F 77% 30.27 in 10.0 mi SE 3.5 mph - N/A   Clear
1:53 AM 51.1 °F 45.0 °F 80% 30.25 in 10.0 mi ESE 3.5 mph - N/A   Clear
2:53 AM 52.0 °F 46.9 °F 83% 30.23 in 10.0 mi ESE 3.5 mph - N/A   Clear
3:53 AM 53.1 °F 48.9 °F 86% 30.22 in 10.0 mi East 4.6 mph - N/A   Mostly Cloudy
4:53 AM 52.0 °F 48.9 °F 89% 30.22 in 10.0 mi East 3.5 mph - N/A   Clear
5:53 AM 52.0 °F 48.0 °F 86% 30.21 in 10.0 mi East 3.5 mph - N/A   Clear
6:53 AM 52.0 °F 46.9 °F 83% 30.23 in 10.0 mi East 4.6 mph - N/A   Clear
7:53 AM 54.0 °F 46.9 °F 77% 30.24 in 10.0 mi ESE 4.6 mph - N/A   Clear
8:53 AM 61.0 °F 51.1 °F 70% 30.25 in 10.0 mi ESE 11.5 mph - N/A   Clear
9:53 AM 66.0 °F 52.0 °F 60% 30.25 in 10.0 mi SE 12.7 mph 17.3 mph N/A   Clear
10:53 AM 71.1 °F 53.1 °F 53% 30.24 in 10.0 mi SSE 10.4 mph - N/A   Clear
11:53 AM 73.9 °F 52.0 °F 46% 30.22 in 10.0 mi SSE 11.5 mph - N/A   Clear
12:53 PM 73.0 °F 52.0 °F 48% 30.19 in 10.0 mi SE 5.8 mph - N/A   Overcast
1:53 PM 73.9 °F 52.0 °F 46% 30.16 in 10.0 mi South 11.5 mph - N/A   Overcast
2:53 PM 73.9 °F 53.1 °F 48% 30.15 in 10.0 mi South 8.1 mph - N/A   Overcast
3:53 PM 73.0 °F 52.0 °F 48% 30.15 in 10.0 mi SE 6.9 mph - N/A   Overcast
4:53 PM 73.0 °F 53.1 °F 49% 30.15 in 10.0 mi SSE 3.5 mph - N/A   Overcast
5:53 PM 71.1 °F 53.1 °F 53% 30.17 in 10.0 mi Calm Calm - N/A   Overcast
6:53 PM 70.0 °F 54.0 °F 57% 30.17 in 10.0 mi Calm Calm - N/A   Overcast
7:53 PM 70.0 °F 53.1 °F 55% 30.19 in 10.0 mi Calm Calm - N/A   Overcast
8:53 PM 70.0 °F 53.1 °F 55% 30.20 in 10.0 mi SE 4.6 mph - N/A   Overcast
9:53 PM 69.1 °F 54.0 °F 58% 30.20 in 10.0 mi ESE 9.2 mph - N/A   Overcast
10:53 PM 68.0 °F 55.0 °F 63% 30.20 in 10.0 mi SSE 11.5 mph 18.4 mph N/A   Overcast
11:53 PM 66.9 °F 55.0 °F 66% 30.19 in 10.0 mi Variable 6.9 mph - N/A   Overcast